Brookings, SD

4:33 AM CDT on August 18, 2017 (GMT -0500)
Brookings Municipal

Weather History for KBKX - October, 2012

Change the Weather History Date:

Monday, October 1, 2012

  Actual Average Record
Temperature  
Mean Temperature 54 °F -  
Max Temperature 66 °F 61 °F 82 °F (2005)
Min Temperature 42 °F 38 °F 14 °F (2003)
Degree Days  
Heating Degree Days 11    
Growing Degree Days 4 (Base 50)    
Moisture  
Dew Point 40 °F    
Average Humidity 54    
Maximum Humidity 94    
Minimum Humidity 26    
Precipitation  
Precipitation 0.02 in - - ()
Sea Level Pressure  
Sea Level Pressure 30.05 in    
Wind  
Wind Speed 10 mph (NNW)    
Max Wind Speed 22 mph    
Max Gust Speed 32 mph    
Visibility 10 miles    
Events      
Averages and records for this station are not official NWS values.
T = Trace of Precipitation, MM = Missing Value Source: NWS Daily Summary

Daily Weather History Graph

Daily Weather History Graph

Search for Another Location

Airport or City:

Trip Planner

Search our weather history database for the weather conditions in past years. The results will help you decide how hot, cold, wet, or windy it might be!

Date:

Astronomy

Oct. 01, 2012 Rise Set
Actual Time 7:25 AM CDT 7:07 PM CDT
Civil Twilight 6:56 AM CDT 7:35 PM CDT
Nautical Twilight 6:23 AM CDT 8:09 PM CDT
Astronomical Twilight 5:48 AM CDT 8:43 PM CDT
Moon 7:38 PM CDT (10/1) 9:01 AM CDT (10/1)
Length of Visible Light 12h 39m
Length of Day
11h 41m
Full, 98% of the Moon is Illuminated
Oct 1
Full
Oct 8
Last Quarter
Oct 15
New
Oct 21
First Quarter
Oct 29
Full

Hourly Weather History & Observations

Time (CDT) Temp. Windchill Dew Point Humidity Pressure Visibility Wind Dir Wind Speed Gust Speed Precip Events Conditions
12:15 AM 53.6 °F - 37.4 °F 54% 29.96 in 10.0 mi Calm Calm - N/A   Clear
12:35 AM 51.8 °F - 37.4 °F 58% 29.97 in 9.0 mi NW 3.5 mph - N/A   Scattered Clouds
12:55 AM 53.6 °F - 39.2 °F 58% 29.97 in 10.0 mi North 4.6 mph - N/A   Overcast
1:15 AM 57.2 °F - 44.6 °F 63% 29.98 in 10.0 mi NW 9.2 mph - N/A   Overcast
1:35 AM 60.8 °F - 46.4 °F 59% 29.98 in 10.0 mi NW 6.9 mph - N/A   Overcast
1:55 AM 62.6 °F - 48.2 °F 59% 29.98 in 10.0 mi NW 13.8 mph - N/A   Overcast
2:15 AM 64.4 °F - 48.2 °F 56% 29.99 in 10.0 mi NNW 13.8 mph 18.4 mph N/A   Mostly Cloudy
2:35 AM 64.4 °F - 48.2 °F 56% 29.99 in 10.0 mi NW 9.2 mph - N/A   Overcast
2:55 AM 62.6 °F - 50.0 °F 63% 29.99 in 10.0 mi NNW 11.5 mph - N/A   Overcast
3:35 AM 59.0 °F - 51.8 °F 77% 30.00 in 10.0 mi NNW 13.8 mph - N/A   Overcast
3:55 AM 57.2 °F - 53.6 °F 88% 30.01 in 10.0 mi North 9.2 mph - 0.01 in   Overcast
4:15 AM 57.2 °F - 53.6 °F 88% 29.99 in 10.0 mi NNE 9.2 mph - 0.01 in   Overcast
4:35 AM 57.2 °F - 53.6 °F 88% 30.00 in 10.0 mi NW 6.9 mph - 0.01 in   Overcast
5:15 AM 55.4 °F - 53.6 °F 94% 30.01 in 10.0 mi NW 10.4 mph - N/A   Overcast
5:35 AM 55.4 °F - 51.8 °F 88% 30.01 in 10.0 mi NNW 9.2 mph - N/A   Overcast
6:15 AM 55.4 °F - 51.8 °F 88% 30.02 in 10.0 mi NNW 9.2 mph - N/A   Overcast
6:35 AM 55.4 °F - 50.0 °F 82% 30.03 in 10.0 mi NNW 9.2 mph - N/A   Mostly Cloudy
7:15 AM 53.6 °F - 46.4 °F 77% 30.04 in 10.0 mi NNW 10.4 mph - N/A   Mostly Cloudy
7:35 AM 51.8 °F - 44.6 °F 76% 30.05 in 10.0 mi NNW 10.4 mph - N/A   Mostly Cloudy
7:55 AM 51.8 °F - 44.6 °F 76% 30.05 in 10.0 mi NW 8.1 mph - N/A   Scattered Clouds
8:15 AM 50.0 °F - 44.6 °F 82% 30.06 in 10.0 mi NW 8.1 mph - N/A   Clear
8:35 AM 51.8 °F - 44.6 °F 76% 30.07 in 10.0 mi NNW 11.5 mph - N/A   Clear
8:55 AM 53.6 °F - 44.6 °F 72% 30.08 in 10.0 mi NW 13.8 mph - N/A   Clear
9:15 AM 53.6 °F - 46.4 °F 77% 30.09 in 10.0 mi NNW 15.0 mph - N/A   Clear
9:35 AM 55.4 °F - 44.6 °F 67% 30.09 in 10.0 mi NNW 13.8 mph 21.9 mph N/A   Clear
9:55 AM 57.2 °F - 44.6 °F 63% 30.09 in 10.0 mi North 15.0 mph - N/A   Clear
10:15 AM 57.2 °F - 44.6 °F 63% 30.10 in 10.0 mi NNW 17.3 mph - N/A   Clear
10:35 AM 59.0 °F - 44.6 °F 59% 30.10 in 10.0 mi North 18.4 mph - N/A   Clear
10:55 AM 60.8 °F - 44.6 °F 55% 30.11 in 10.0 mi North 18.4 mph 23.0 mph N/A   Clear
11:15 AM 60.8 °F - 44.6 °F 55% 30.11 in 10.0 mi NNW 15.0 mph 20.7 mph N/A   Partly Cloudy
11:35 AM 62.6 °F - 42.8 °F 48% 30.10 in 10.0 mi North 16.1 mph 23.0 mph N/A   Scattered Clouds
12:15 PM 64.4 °F - 39.2 °F 40% 30.09 in 10.0 mi North 17.3 mph 25.3 mph N/A   Scattered Clouds
12:35 PM 66.2 °F - 39.2 °F 37% 30.09 in 10.0 mi North 21.9 mph 31.1 mph N/A   Clear
1:15 PM 64.4 °F - 37.4 °F 37% 30.08 in 10.0 mi NNW 19.6 mph 32.2 mph N/A   Clear
1:35 PM 66.2 °F - 37.4 °F 35% 30.08 in 10.0 mi North 19.6 mph 28.8 mph N/A   Partly Cloudy
1:55 PM 66.2 °F - 37.4 °F 35% 30.07 in 10.0 mi NNW 17.3 mph 27.6 mph N/A   Clear
2:15 PM 66.2 °F - 37.4 °F 35% 30.06 in 10.0 mi North 20.7 mph 31.1 mph N/A   Clear
2:35 PM 66.2 °F - 37.4 °F 35% 30.06 in 10.0 mi NNW 21.9 mph 28.8 mph N/A   Clear
2:55 PM 66.2 °F - 37.4 °F 35% 30.05 in 10.0 mi North 21.9 mph 26.5 mph N/A   Clear
3:15 PM 66.2 °F - 35.6 °F 32% 30.05 in 10.0 mi North 16.1 mph 26.5 mph N/A   Clear
3:35 PM 66.2 °F - 37.4 °F 35% 30.05 in 10.0 mi NW 20.7 mph 26.5 mph N/A   Clear
3:55 PM 66.2 °F - 37.4 °F 35% 30.05 in 10.0 mi NNW 17.3 mph 26.5 mph N/A   Clear
4:15 PM 66.2 °F - 33.8 °F 30% 30.05 in 10.0 mi North 19.6 mph 27.6 mph N/A   Clear
4:35 PM 66.2 °F - 35.6 °F 32% 30.05 in 10.0 mi NNW 18.4 mph 31.1 mph N/A   Clear
4:55 PM 66.2 °F - 33.8 °F 30% 30.05 in 10.0 mi NNW 17.3 mph 26.5 mph N/A   Clear
5:15 PM 66.2 °F - 33.8 °F 30% 30.04 in 10.0 mi NNW 17.3 mph 24.2 mph N/A   Clear
5:35 PM 66.2 °F - 30.2 °F 26% 30.04 in 10.0 mi NNW 16.1 mph 20.7 mph N/A   Clear
5:55 PM 64.4 °F - 30.2 °F 28% 30.05 in 10.0 mi North 18.4 mph - N/A   Clear
6:15 PM 64.4 °F - 30.2 °F 28% 30.05 in 10.0 mi NNW 15.0 mph 23.0 mph N/A   Clear
6:35 PM 62.6 °F - 30.2 °F 30% 30.05 in 10.0 mi NNW 12.7 mph - N/A   Clear
6:55 PM 60.8 °F - 32.0 °F 34% 30.06 in 10.0 mi NNW 9.2 mph - N/A   Clear
7:15 PM 57.2 °F - 33.8 °F 41% 30.06 in 10.0 mi NNW 9.2 mph - N/A   Clear
7:35 PM 53.6 °F - 33.8 °F 47% 30.05 in 10.0 mi NW 8.1 mph - N/A   Clear
7:55 PM 53.6 °F - 32.0 °F 44% 30.05 in 10.0 mi NNW 5.8 mph - N/A   Clear
8:15 PM 51.8 °F - 33.8 °F 50% 30.06 in 10.0 mi North 3.5 mph - N/A   Clear
8:35 PM 53.6 °F - 32.0 °F 44% 30.06 in 10.0 mi NNW 3.5 mph - N/A   Clear
8:55 PM 51.8 °F - 30.2 °F 44% 30.06 in 10.0 mi North 3.5 mph - N/A   Clear
9:15 PM 51.8 °F - 32.0 °F 47% 30.06 in 10.0 mi NNW 4.6 mph - N/A   Clear
9:35 PM 50.0 °F - 32.0 °F 50% 30.06 in 10.0 mi NNW 3.5 mph - N/A   Clear
9:55 PM 48.2 °F - 30.2 °F 50% 30.06 in 10.0 mi Calm Calm - N/A   Clear
10:15 PM 46.4 °F - 32.0 °F 57% 30.06 in 10.0 mi Calm Calm - N/A   Clear
10:35 PM 48.2 °F - 32.0 °F 54% 30.06 in 10.0 mi Calm Calm - N/A   Clear
10:55 PM 48.2 °F - 32.0 °F 54% 30.06 in 10.0 mi Calm Calm - N/A   Clear
11:15 PM 44.6 °F 43.1 °F 30.2 °F 57% 30.06 in 10.0 mi NNW 3.5 mph - N/A   Clear
11:35 PM 42.8 °F - 32.0 °F 66% 30.06 in 10.0 mi Calm Calm - N/A   Clear
11:55 PM 44.6 °F - 33.8 °F 66% 30.05 in 10.0 mi Calm Calm - N/A   Clear